| time (UTC) | temp F | wind direction | speed MPH | gust MPH | rain 1hr in | rain 24hr in | rain mn in | humidity % | barometer mb |
| 20260905174303 | 66 | 0.0 | 0.0 | 0.00 | 0.00 | 0.00 | 47 | 1024.0 | |
| 20260905161332 | 80 | 0.0 | 0.0 | 0.00 | 0.00 | 0.00 | 37 | 1023.2 | |
| 20260905152840 | 79 | 0.0 | 0.0 | 0.00 | 0.00 | 0.00 | 37 | 1023.0 | |
| 20260905145837 | 77 | 0.0 | 0.0 | 0.00 | 0.00 | 0.00 | 38 | 1023.0 | |
| 20260905144352 | 84 | 0.0 | 0.0 | 0.00 | 0.00 | 0.00 | 34 | 1022.8 | |
| 20260905141356 | 82 | 0.0 | 0.0 | 0.00 | 0.00 | 0.00 | 32 | 1022.7 | |
| 20260905134400 | 81 | 0.0 | 0.0 | 0.00 | 0.00 | 0.00 | 35 | 1022.6 | |
| 20260905121410 | 77 | 0.0 | 0.0 | 0.00 | 0.00 | 0.00 | 39 | 1023.2 | |
| 20260905114412 | 76 | 0.0 | 0.0 | 0.00 | 0.00 | 0.00 | 40 | 1023.4 | |
| 20260905111416 | 75 | 0.0 | 0.0 | 0.00 | 0.00 | 0.00 | 41 | 1023.6 | |
| 20260905105917 | 75 | 0.0 | 0.0 | 0.00 | 0.00 | 0.00 | 44 | 1023.4 | |
| 20260905102921 | 75 | 0.0 | 0.0 | 0.00 | 0.00 | 0.00 | 44 | 1023.5 | |
| 20260905092928 | 73 | 0.0 | 0.0 | 0.00 | 0.00 | 0.00 | 53 | 1023.4 | |
| 20260905081433 | 66 | 0.0 | 0.0 | 0.00 | 0.00 | 0.00 | 64 | 1023.1 | |
| 20260905075936 | 67 | 0.0 | 0.0 | 0.00 | 0.00 | 0.00 | 64 | 1022.8 | |
| 20260905062946 | 63 | 0.0 | 0.0 | 0.00 | 0.00 | 0.00 | 71 | 1022.6 | |
| 20260905061447 | 60 | 0.0 | 0.0 | 0.00 | 0.00 | 0.00 | 77 | 1022.6 | |
| 20260905055948 | 58 | 0.0 | 0.0 | 0.00 | 0.00 | 0.00 | 78 | 1022.6 | |
| 20260905054450 | 57 | 0.0 | 0.0 | 0.00 | 0.00 | 0.00 | 79 | 1022.2 | |
| 20260905052953 | 57 | 0.0 | 0.0 | 0.00 | 0.00 | 0.00 | 79 | 1022.0 | |
| 20260905051455 | 57 | 0.0 | 0.0 | 0.00 | 0.00 | 0.00 | 79 | 1021.8 | |
| 20260905045958 | 57 | 0.0 | 0.0 | 0.00 | 0.00 | 0.00 | 80 | 1021.4 | |
| 20260905044502 | 57 | 0.0 | 0.0 | 0.00 | 0.00 | 0.00 | 80 | 1020.9 | |
| 20260905041505 | 58 | 0.0 | 0.0 | 0.00 | 0.00 | 0.00 | 82 | 1021.5 | |
| 20260905034510 | 59 | 0.0 | 0.0 | 0.00 | 0.00 | 0.00 | 80 | 1021.3 | |
| 20260905033012 | 59 | 0.0 | 0.0 | 0.00 | 0.00 | 0.00 | 79 | 1021.1 | |
| 20260905031514 | 59 | 0.0 | 0.0 | 0.00 | 0.00 | 0.00 | 78 | 1020.5 | |
| 20260905030017 | 59 | 0.0 | 0.0 | 0.00 | 0.00 | 0.00 | 78 | 1020.5 | |
| 20260905024519 | 60 | 0.0 | 0.0 | 0.00 | 0.00 | 0.00 | 77 | 1020.3 | |
| 20260905023021 | 60 | 0.0 | 0.0 | 0.00 | 0.00 | 0.00 | 77 | 1020.2 | |
| 20260905021523 | 60 | 0.0 | 0.0 | 0.00 | 0.00 | 0.00 | 75 | 1020.0 | |
| 20260905020026 | 61 | 0.0 | 0.0 | 0.00 | 0.00 | 0.00 | 74 | 1019.7 | |
| 20260905013032 | 61 | 0.0 | 0.0 | 0.00 | 0.00 | 0.00 | 72 | 1019.6 | |
| 20260905011534 | 61 | 0.0 | 0.0 | 0.00 | 0.00 | 0.00 | 72 | 1019.9 | |
| 20260905010037 | 61 | 0.0 | 0.0 | 0.00 | 0.00 | 0.00 | 70 | 1019.3 | |
| 20260905004539 | 62 | 0.0 | 0.0 | 0.00 | 0.00 | 0.00 | 68 | 1019.2 | |
| 20260905001545 | 64 | 0.0 | 0.0 | 0.00 | 0.00 | 0.00 | 66 | 1019.1 | |
| 20260904234551 | 66 | 0.0 | 0.0 | 0.00 | 0.00 | 0.00 | 64 | 1018.7 | |
| 20260904224600 | 66 | 0.0 | 0.0 | 0.00 | 0.00 | 0.00 | 64 | 1017.0 | |
| 20260904223102 | 65 | 0.0 | 0.0 | 0.00 | 0.00 | 0.00 | 65 | 1016.9 | |
| 20260904221604 | 65 | 0.0 | 0.0 | 0.00 | 0.00 | 0.00 | 66 | 1016.7 | |
| 20260904220105 | 65 | 0.0 | 0.0 | 0.00 | 0.00 | 0.00 | 66 | 1015.9 | |
| 20260904213111 | 67 | 0.0 | 0.0 | 0.00 | 0.00 | 0.00 | 65 | 1015.2 | |
| 20260904201626 | 70 | 0.0 | 0.0 | 0.00 | 0.00 | 0.00 | 62 | 1014.9 | |
| 20260904191635 | 71 | 0.0 | 0.0 | 0.00 | 0.00 | 0.00 | 60 | 1014.7 | |
| 20260904190137 | 71 | 0.0 | 0.0 | 0.00 | 0.00 | 0.00 | 60 | 1014.6 |